#timestamp,LO_Frequency,Hit,StdDev 
1590188415.3,286046998.9,N
1590188435.1,286047000.7,N
1590188455.9,286047002.4,N
1590188475.7,286047001.8,N
1590188495.5,286047002.3,N
1590188515.4,286046999.7,N
1590188535.2,286046999.9,N
1590188555.0,286047002.1,N
1590188556.0,286047002.1,N
1590188575.8,286047000.0,N
1590188595.6,286047002.5,N
1590188615.5,286047002.2,N
1590188635.3,286047000.0,N
1590188655.1,286047000.1,N
1590188675.9,286046998.7,N
1590188695.7,286046998.2,N
1590188715.5,286047000.2,N
1590188735.4,286047000.1,N
1590188755.2,286046998.2,N
1590188775.1,286046998.7,N
1590188776.0,286046998.7,N
1590188795.8,286046998.4,N
1590188815.6,286046998.6,N
1590188835.5,286047001.2,N
1590188855.3,286046999.8,N
1590188875.1,286047001.9,N
1590188895.9,286047002.1,N
1590188915.7,286047001.4,N
1590188935.6,286047003.1,N
1590188955.4,286047005.5,Y
1590188975.2,286047005.2,P
1590188995.1,286047005.4,N
1590188996.0,286047005.4,N
1590189015.8,286047005.0,N
1590189035.7,286047004.5,N
1590189055.5,286047005.7,Y
1590189075.3,286047001.0,P
1590189095.2,286046998.6,N
1590189115.0,286046999.6,N
1590189115.9,286046999.6,N
1590189135.7,286046999.6,N
1590189155.6,286046998.9,N
1590189175.4,286046999.0,N
1590189195.3,286046996.9,N
1590189215.1,286046998.5,N
1590189216.0,286046998.5,N
1590189235.8,286046998.2,N
1590189255.7,286046998.2,N
1590189275.5,286047000.3,N
1590189295.3,286046998.1,N
1590189315.2,286047000.2,N
1590189335.0,286047000.7,N
1590189335.9,286047000.7,N
1590189355.8,286047000.3,N
1590189375.6,286047000.3,N
1590189395.4,286047000.2,N
1590189415.3,286047002.6,N
1590189435.1,286047002.3,N
1590189455.9,286047001.5,N
1590189475.7,286047001.8,N
1590189495.5,286047002.4,N
1590189515.4,286047002.3,N
1590189535.2,286047000.6,N
1590189555.0,286047002.1,N
1590189555.9,286047002.1,N
1590189575.8,286047001.8,N
1590189595.6,286047004.3,N
1590189615.5,286047002.1,N
1590189635.3,286047001.8,N
1590189655.1,286047002.2,N
1590189675.9,286047002.8,N
1590189695.7,286046999.9,N
1590189715.5,286046999.8,N
1590189735.4,286047002.6,N
1590189755.2,286047001.1,N
1590189775.0,286046998.2,N
1590189776.0,286046998.2,N
1590189795.8,286047001.0,N
1590189815.6,286047000.3,N
1590189835.5,286047002.2,N
1590189855.3,286047002.7,N
1590189875.1,286047001.9,N
1590189895.9,286047002.0,N
1590189915.7,286047001.6,N
1590189935.6,286047000.5,N
1590189955.4,286047000.8,N
1590189975.2,286047000.7,N
1590189995.1,286047000.8,N
1590189996.0,286047000.8,N
1590190015.8,286047000.6,N
1590190035.6,286047000.4,N
1590190055.5,286047000.3,N
1590190105.3,286047000.2,E
1590190115.3,286046999.9,N
1590190135.1,286047001.0,P
1590190155.8,286047000.0,N
1590190175.7,286047000.2,N
1590190195.5,286047002.5,Y
1590190215.4,286047000.9,P
1590190235.2,286046998.3,P
1590190255.0,286047000.7,N
1590190255.9,286047000.7,N
1590190275.8,286047001.0,N
1590190295.6,286047000.5,N
1590190315.5,286047000.8,N
1590190335.3,286046998.3,N
1590190355.1,286046998.9,N
1590190375.9,286046999.0,N
1590190395.7,286046997.3,N
1590190415.6,286046999.2,N
1590190435.4,286046996.7,N
1590190455.2,286046998.3,N
1590190475.1,286046999.2,N
1590190476.0,286046999.2,N
1590190495.8,286046998.6,N
1590190515.6,286046999.4,N
1590190535.5,286046998.8,N
1590190555.3,286046999.0,N
1590190575.2,286046996.5,Y
1590190595.9,286046996.8,P
1590190615.7,286046997.8,N
1590190635.6,286046997.9,N
1590190655.4,286046997.3,Y
1590190675.3,286047001.1,P
1590190695.1,286046999.4,N
1590190696.0,286046999.4,N
1590190715.8,286046998.3,N
1590190735.7,286046998.4,N
1590190755.5,286046998.4,N
1590190775.4,286046998.2,N
1590190795.2,286046997.4,N
1590190815.0,286046996.9,Y
1590190815.9,286046996.9,P
1590190835.8,286047000.9,N
1590190855.6,286046998.5,N
1590190875.4,286046998.8,N
1590190895.3,286046999.3,N
1590190915.1,286046998.9,N
1590190935.9,286047000.6,N
1590190955.7,286047000.0,N
1590190975.5,286047001.5,N
1590190995.4,286047003.9,Y
1590191015.2,286047001.7,P
1590191035.0,286047001.3,N
1590191036.0,286047001.3,N
1590191055.8,286047002.3,N
1590191075.6,286047002.2,N
1590191095.5,286046999.9,N
1590191115.3,286047000.6,N
1590191135.1,286047002.3,N
1590191155.9,286047002.6,N
1590191175.7,286046999.7,N
1590191195.5,286047002.4,N
1590191215.4,286047002.2,N
1590191235.2,286047002.6,N
1590191255.1,286046999.9,N
1590191256.0,286046999.9,N
1590191275.8,286047000.6,N
1590191295.6,286047000.0,N
1590191315.5,286047000.5,N
1590191335.3,286047000.0,N
1590191355.1,286047000.5,N
1590191375.9,286047000.8,N
1590191395.7,286047000.0,N
1590191415.6,286047000.4,N
1590191435.4,286046999.0,N
1590191455.2,286046999.3,N
1590191475.1,286046997.3,N
1590191476.0,286046997.3,N
1590191495.8,286046998.8,N
1590191515.6,286046998.9,N
1590191535.5,286046996.8,N
1590191555.3,286046999.0,N
1590191575.1,286047002.0,N
1590191595.9,286047002.2,N
1590191615.7,286047001.6,N
1590191635.6,286047004.3,N
1590191655.4,286047001.7,N
1590191675.2,286047004.0,N
1590191695.1,286047003.6,N
1590191696.0,286047003.6,N
1590191715.8,286047005.5,N
1590191735.6,286047003.0,N
1590191755.5,286047003.4,N
1590191775.3,286047004.0,N
1590191795.2,286047001.6,N
1590191815.9,286047002.7,N
1590191835.7,286047002.8,N
1590191855.6,286047002.5,N
1590191875.4,286047004.3,N
1590191895.2,286047003.8,N
1590191915.1,286047003.0,N
1590191946.0,286047005.5,E
1590191955.0,286047002.5,N
1590191955.9,286047002.5,P
1590191975.8,286046999.2,P
1590191995.6,286046999.0,N
